Location: Kawakawa
(35.3830°S, 174.0670°E)
Time: 04:10:20
(UTC+13:00)

A-11 Canister half - Pass Details

Date: 11 December 2019
Orbit: 1525 x 1684 km, 47.3° (Epoch: 26 January)

Event Time Altitude Azimuth Distance (km) Brightness Sun altitude
Rises 01:15:48 0° 236° (SW) 4,710 12.0 -31.7°
Reaches altitude 10° 01:18:50 10° 235° (SW) 3,737 11.4 -31.7°
Maximum altitude 01:28:21 81° 146° (SSE) 1,598 9.0 -31.6°
Enters shadow 01:33:55 30° 61° (ENE) 2,567 9.9 -31.6°
